CAPE
0 0 1315 1148 436 76 26 0 0 0 0 0 0 0 0 0 0 0 0 0 0 0 0 0 0 0 0 0 0 0 0 0 174 672 685 725 1018 1143 1174 1222 1404 887 1343
0 0 1360 1286 710 178 232 88 39 43 0 0 0 0 0 0 0 0 0 0 0 0 0 0 0 0 0 0 0 0 0 0 0 399 717 785 834 845 1016 1153 1283 1193 1347
0 0 869 1334 1010 700 720 637 498 362 131 0 0 0 0 0 0 0 0 0 0 0 0 0 0 0 0 0 8 5 0 0 0 116 609 669 694 844 885 1151 1352 1371 1309
0 0 563 1432 1175 1016 941 825 685 506 271 74 2 0 0 2 35 32 2 7 15 14 14 5 0 1 2 0 1 76 4 0 0 0 354 595 229 795 793 1145 1292 1236 1288
0 31 308 1529 1380 1289 1176 1123 1021 829 606 228 107 64 147 174 295 247 57 0 9 29 34 54 25 22 1 3 0 5 198 2 0 0 146 320 356 655 749 915 1048 1211 1436
0 61 357 1564 1544 1553 1526 1485 1404 985 753 486 433 425 537 448 370 324 186 73 62 14 49 62 35 22 17 50 4 5 30 120 0 0 29 181 504 546 860 1232 930 860 1380
3 40 351 1597 1694 1749 1774 1703 1722 1485 1383 1250 650 662 774 629 473 330 272 215 88 47 102 32 34 87 220 187 73 161 15 168 103 0 0 66 372 497 890 1203 1031 977 849
0 36 299 1406 1810 1839 1942 1901 1922 1798 1686 1632 1363 1415 1149 1014 636 359 224 163 142 88 44 70 110 382 362 256 148 326 22 174 179 0 0 65 139 596 856 936 1017 747 618
0 67 231 890 1562 1869 2050 1991 1941 1898 1918 1975 2044 1798 1193 548 186 62 34 27 22 33 45 58 78 139 334 243 98 151 138 138 135 7 0 33 259 678 850 991 970 686 318
17 72 192 680 1256 1154 1499 2215 2149 2256 2207 2104 1407 1009 615 110 64 53 77 33 11 15 25 37 24 45 311 276 280 129 166 152 227 27 22 0 435 824 880 829 855 1004 801
1 102 158 367 630 614 764 1236 2046 1537 1227 1038 748 632 339 0 0 18 17 16 0 6 21 39 53 168 245 248 106 151 227 113 100 88 75 189 527 954 834 1269 942 743 459
0 0 33 84 280 291 295 252 286 303 85 117 52 1 10 0 0 0 0 0 0 4 12 36 135 154 95 29 36 239 186 34 115 151 193 474 589 1003 1008 938 850 381 1
0 0 0 1 7 2 0 0 0 0 0 0 0 0 0 0 0 0 0 0 0 0 0 0 0 4 58 2 16 28 0 48 86 185 405 510 666 945 1017 1054 928 481 69
0 0 0 0 0 0 0 0 0 0 0 0 0 0 0 0 0 0 0 0 0 0 0 0 0 0 7 0 0 0 0 21 48 128 404 469 903 1019 1140 1204 1223 719 464
0 0 0 0 0 0 0 0 0 0 0 0 0 0 0 0 0 0 0 0 0 0 0 0 0 0 0 0 0 0 0 0 37 262 422 340 910 974 1117 1267 1204 853 534
0 0 0 0 0 0 0 0 0 0 0 0 0 0 0 0 0 0 0 0 0 0 0 0 0 0 0 0 0 0 0 0 27 238 486 270 952 995 1192 1171 993 1021 644
0 0 0 0 0 0 0 0 0 0 0 0 0 0 0 0 0 0 0 0 0 0 0 0 0 0 1 0 0 0 0 0 92 254 458 536 784 978 1086 1265 1125 999 695
0 0 0 0 0 0 0 0 0 0 0 0 0 0 0 0 0 0 0 0 0 0 0 0 0 1 1 0 10 7 19 34 158 292 491 649 842 1062 1094 1094 1158 883 684
0 0 0 0 0 0 0 0 0 0 0 0 0 0 0 0 0 0 0 0 0 0 0 0 0 0 1 0 48 41 14 113 328 549 583 604 836 884 1044 1080 791 768 707
0 0 0 0 0 0 0 0 0 0 0 0 0 0 0 0 0 0 0 0 0 0 0 1 0 0 0 68 276 55 42 80 213 468 407 388 797 763 613 644 825 530 734
0 0 0 0 0 0 0 0 0 0 0 0 0 0 0 0 0 0 0 0 0 0 0 0 0 0 28 16 1 33 21 14 44 404 658 400 452 457 478 530 591 572 370
0 0 0 0 0 0 0 0 0 0 0 0 0 0 0 0 0 0 0 0 0 0 0 0 0 0 1 9 12 3 167 155 253 305 534 609 377 459 363 357 370 357 251
0 0 0 0 0 0 0 0 0 0 0 0 0 0 0 0 0 4 0 0 0 0 0 0 0 1 63 11 1 51 70 37 258 462 464 486 316 201 86 214 201 152 139
0 0 0 0 0 0 0 0 0 0 0 0 0 0 0 0 0 0 0 0 0 0 0 0 0 0 43 36 27 54 0 154 118 302 470 277 294 123 31 94 92 41 3
0 0 0 0 0 0 0 0 0 0 0 0 0 0 0 0 0 0 0 0 0 0 0 0 0 0 5 20 40 84 81 109 89 123 273 182 97 48 24 16 24 44 2
0 0 0 0 0 0 0 0 0 0 0 0 0 0 0 0 0 0 0 0 0 0 0 0 0 0 0 1 23 31 139 347 143 144 72 82 44 29 23 16 12 14 3
CIN
-0 -0 -190 -140 -202 -277 -299 -0 -0 -0 -0 -0 -0 -0 -0 -0 -0 -0 -0 -0 -0 -0 -0 -0 -0 -0 -0 -0 -0 -0 -0 -0 -66 -0 -8 -9 -5 -2 -3 -2 -0 -0 -0
-0 -0 -172 -121 -150 -209 -138 -171 -151 -115 -0 -0 -0 -0 -0 -0 -0 -0 -0 -0 -0 -0 -0 -0 -0 -0 -0 -0 -0 -0 -0 -0 -0 -8 -5 -7 -5 -3 -3 -1 -2 -0 -0
-0 -0 -261 -104 -106 -111 -84 -71 -66 -53 -80 -0 -0 -0 -0 -0 -0 -0 -0 -0 -0 -0 -0 -0 -0 -0 -0 -0 -0 -0 -0 -0 -0 -103 -0 -9 -10 -1 -1 -1 -0 -0 -0
-0 -0 -332 -124 -121 -107 -75 -62 -53 -42 -49 -74 -49 -0 -0 -41 -164 -186 -0 -0 -0 -0 -0 -0 -0 -0 -0 -0 -0 -117 -0 -0 -0 -0 -16 -7 -50 -2 -2 -0 -0 -0 -0
-0 -715 -438 -144 -125 -98 -69 -51 -38 -22 -16 -46 -43 -40 -17 -29 -21 -43 -214 -0 -0 -0 -0 -158 -1 -1 -0 -0 -0 -0 -21 -0 -0 -0 -61 -34 -29 -8 -4 -3 -0 -0 -0
-0 -678 -435 -156 -116 -83 -55 -38 -19 -22 -17 -25 -7 -0 -0 -0 -2 -11 -55 -135 -201 -0 -68 -4 -0 -0 -0 -162 -0 -0 -112 -41 -0 -0 -179 -76 -13 -19 -6 -0 -1 -3 -0
-412 -771 -507 -175 -128 -77 -45 -28 -9 -7 -0 -0 -1 -0 -0 -0 -0 -1 -12 -41 -109 -0 -136 -0 -0 -32 -41 -58 -23 -41 -59 -30 -56 -0 -0 -130 -22 -22 -4 -1 -1 -2 -2
-0 -878 -598 -212 -110 -81 -42 -20 -4 -1 -0 -0 -0 -0 -0 -0 -0 -0 -3 -53 -69 -123 -0 -111 -86 -9 -8 -30 -95 -6 -38 -23 -12 -0 -0 -106 -75 -16 -2 -5 -1 -3 -0
-0 -850 -619 -322 -156 -74 -34 -9 -1 -0 -0 -0 -0 -0 -1 -3 -63 -111 -21 -0 -0 -0 -0 -0 -63 -40 -4 -13 -2 -62 -46 -30 -43 -21 -0 -104 -27 -7 -0 -1 -2 -6 -2
-916 -821 -685 -392 -210 -180 -85 -0 -0 -0 -0 -0 -0 -1 -3 -61 -131 -168 -106 -147 -35 -0 -0 -0 -3 -4 -2 -4 -1 -18 -19 -26 -8 -75 -82 -0 -12 -2 -0 -0 -3 -0 -0
-321 -857 -756 -557 -403 -355 -231 -88 -2 -10 -15 -9 -9 -3 -29 -0 -0 -118 -68 -122 -0 -0 -0 -0 -7 -11 -7 -3 -10 -24 -19 -94 -80 -42 -37 -44 -3 -0 -0 -0 -0 -1 -1
-0 -0 -1006 -798 -597 -536 -450 -392 -311 -258 -342 -277 -277 -155 -102 -0 -0 -0 -0 -0 -0 -0 -0 -0 -19 -11 -1 -18 -9 -10 -32 -161 -81 -46 -26 -8 -4 -0 -0 -0 -0 -6 -87
-0 -0 -0 -145 -480 -112 -0 -0 -0 -0 -0 -0 -0 -0 -0 -0 -0 -0 -0 -0 -0 -0 -0 -0 -0 -7 -21 -4 -29 -26 -0 -31 -65 -31 -8 -5 -2 -0 -0 -0 -0 -6 -78
-0 -0 -0 -0 -0 -0 -0 -0 -0 -0 -0 -0 -0 -0 -0 -0 -0 -0 -0 -0 -0 -0 -0 -0 -0 -0 -9 -0 -0 -0 -0 -27 -41 -37 -9 -15 -0 -0 -0 -0 -0 -0 -1
-0 -0 -0 -0 -0 -0 -0 -0 -0 -0 -0 -0 -0 -0 -0 -0 -0 -0 -0 -0 -0 -0 -0 -0 -0 -0 -0 -0 -0 -0 -0 -0 -83 -31 -15 -39 -3 -3 -0 -0 -0 -0 -0
-0 -0 -0 -0 -0 -0 -0 -0 -0 -0 -0 -0 -0 -0 -0 -0 -0 -0 -0 -0 -0 -0 -0 -0 -0 -0 -0 -0 -0 -0 -0 -0 -92 -53 -17 -69 -7 -5 -0 -0 -0 -0 -0
-0 -0 -0 -0 -0 -0 -0 -0 -0 -0 -0 -0 -0 -0 -0 -0 -0 -0 -0 -0 -0 -0 -0 -0 -0 -0 -0 -0 -0 -0 -0 -0 -83 -71 -46 -43 -15 -8 -2 -0 -0 -0 -0
-0 -0 -0 -0 -0 -0 -0 -0 -0 -0 -0 -0 -0 -0 -0 -0 -0 -0 -0 -0 -0 -0 -0 -0 -0 -0 -0 -0 -83 -97 -126 -136 -87 -91 -52 -35 -14 -8 -9 -10 -0 -0 -0
-0 -0 -0 -0 -0 -0 -0 -0 -0 -0 -0 -0 -0 -0 -0 -0 -0 -0 -0 -0 -0 -0 -0 -0 -0 -0 -0 -0 -69 -101 -146 -100 -68 -42 -36 -50 -26 -29 -18 -9 -18 -3 -0
-0 -0 -0 -0 -0 -0 -0 -0 -0 -0 -0 -0 -0 -0 -0 -0 -0 -0 -0 -0 -0 -0 -0 -0 -0 -0 -0 -42 -17 -74 -97 -95 -81 -47 -64 -91 -33 -47 -61 -61 -15 -10 -0
-0 -0 -0 -0 -0 -0 -0 -0 -0 -0 -0 -0 -0 -0 -0 -0 -0 -0 -0 -0 -0 -0 -0 -0 -0 -0 -22 -53 -5 -56 -90 -121 -110 -38 -17 -65 -60 -70 -58 -28 -26 -1 -2
-0 -0 -0 -0 -0 -0 -0 -0 -0 -0 -0 -0 -0 -0 -0 -0 -0 -0 -0 -0 -0 -0 -0 -0 -0 -0 -19 -95 -74 -26 -22 -28 -23 -27 -15 -8 -36 -29 -32 -23 -39 -18 -1
-0 -0 -0 -0 -0 -0 -0 -0 -0 -0 -0 -0 -0 -0 -0 -0 -0 -54 -0 -0 -0 -0 -0 -0 -0 -7 -41 -46 -65 -69 -18 -7 -2 -4 -7 -2 -19 -54 -82 -21 -17 -3 -5
-0 -0 -0 -0 -0 -0 -0 -0 -0 -0 -0 -0 -0 -0 -0 -0 -0 -0 -0 -0 -0 -0 -0 -0 -0 -3 -123 -87 -69 -68 -0 -70 -41 -3 -0 -5 -6 -28 -55 -42 -10 -0 -9
-0 -0 -0 -0 -0 -0 -0 -0 -0 -0 -0 -0 -0 -0 -0 -0 -0 -0 -0 -0 -0 -0 -0 -0 -0 -0 -130 -96 -69 -63 -79 -96 -108 -79 -10 -11 -17 -37 -41 -44 -30 -5 -0
-0 -0 -0 -0 -0 -0 -0 -0 -0 -0 -0 -0 -0 -0 -0 -0 -0 -0 -0 -0 -0 -0 -0 -0 -0 -0 -0 -96 -117 -132 -85 -51 -86 -55 -52 -34 -51 -22 -37 -51 -37 -40 -0
Wind_Speed
8 8 21 19 18 17 17 16 15 14 13 12 11 10 8 6 5 4 4 3 3 3 5 4 4 4 4 3 2 3 4 5 6 7 7 9 10 11 10 13 15 13 14
14 11 22 20 19 19 17 17 16 14 14 13 12 11 10 9 8 7 6 5 5 5 7 6 5 6 5 5 4 4 4 4 5 7 8 7 10 11 12 14 15 13 15
15 12 18 21 20 19 18 17 16 15 14 14 13 13 12 11 11 11 10 9 8 7 8 8 7 7 7 6 6 6 5 5 4 6 8 3 5 13 13 14 16 17 15
14 13 16 23 22 21 19 17 16 16 15 15 14 14 13 13 13 12 11 11 11 11 10 10 9 8 8 8 8 6 7 7 6 5 3 4 5 12 16 16 17 18 17
12 13 16 24 22 21 19 18 17 17 16 16 14 14 13 13 13 13 14 12 13 14 14 12 11 11 10 10 9 7 7 8 7 5 3 3 4 9 15 17 17 18 17
11 12 16 22 21 20 20 18 17 16 16 16 15 15 16 14 15 15 15 14 15 15 15 13 12 12 12 11 10 9 7 8 8 2 3 4 5 9 16 17 19 18 17
9 9 12 20 21 20 19 18 17 17 16 16 15 15 14 15 14 14 16 15 16 16 16 15 14 13 13 13 13 10 8 8 5 3 4 4 5 10 15 16 18 17 16
12 9 9 18 19 19 18 18 17 17 16 15 14 13 12 13 12 13 14 15 15 15 16 17 16 14 13 12 12 10 10 10 7 5 4 4 7 11 14 16 16 16 16
7 8 7 10 15 19 18 17 16 15 14 14 13 12 11 11 11 11 13 14 15 15 16 16 16 16 13 11 13 13 12 12 5 3 4 3 8 12 14 14 15 20 22
5 7 8 7 8 7 8 15 14 14 15 14 13 12 11 11 12 11 11 11 13 15 16 17 17 16 15 13 12 13 14 13 5 5 4 4 10 12 15 17 17 19 19
4 7 6 7 7 7 6 7 12 15 13 12 11 12 9 4 5 6 7 11 13 14 15 15 15 17 16 15 15 15 16 3 4 3 3 8 11 12 15 17 16 15 14
9 6 8 7 7 7 4 5 4 4 2 3 5 6 4 5 4 6 9 13 12 13 15 15 14 15 15 4 4 14 4 4 3 4 3 10 11 14 16 17 19 17 12
11 6 9 7 7 7 5 4 3 2 3 3 5 5 5 3 3 3 2 2 3 7 3 5 5 3 3 4 4 3 4 5 3 3 5 10 13 14 17 20 23 24 26
9 10 9 8 7 6 4 4 4 3 3 3 4 5 4 3 4 4 3 4 4 2 4 3 2 3 4 5 6 5 6 4 3 3 5 11 14 14 17 20 24 23 22
10 9 9 8 7 6 6 4 3 4 4 4 4 4 4 4 5 4 5 4 3 2 3 3 3 3 4 5 5 6 5 5 5 3 3 12 15 12 16 19 23 22 24
9 8 9 9 8 7 5 5 4 4 5 3 3 5 6 5 5 4 4 5 4 3 3 2 4 3 3 4 5 5 5 4 5 5 4 6 14 12 15 18 22 22 24
7 11 12 9 8 7 7 5 4 4 4 4 4 5 6 5 6 5 4 4 4 3 4 3 3 2 2 2 4 4 3 5 5 5 6 6 6 12 15 18 21 21 20
12 13 9 8 8 7 6 4 4 5 4 4 4 3 5 5 6 5 4 4 3 3 3 2 2 2 2 4 3 3 3 4 5 6 5 4 5 5 11 18 20 19 20
14 14 10 8 8 7 5 4 5 5 4 4 3 3 5 5 5 5 4 4 4 3 3 2 1 2 3 3 3 2 2 3 4 3 5 5 6 5 5 15 20 18 21
13 12 9 6 7 6 3 3 3 3 3 3 3 3 4 3 5 4 3 3 3 3 3 3 3 2 2 3 2 1 1 1 1 2 4 4 3 4 4 5 10 12 23
14 13 12 10 7 4 3 3 2 2 2 2 3 5 4 4 4 5 3 3 3 4 4 5 3 4 1 3 4 2 4 3 2 1 2 2 3 3 5 5 7 7 10
14 12 9 9 8 5 3 2 2 1 2 2 2 3 3 4 5 4 4 3 4 3 4 5 4 3 2 3 3 2 2 2 4 1 2 2 3 3 5 7 9 9 9
13 11 9 8 8 5 4 2 2 1 1 2 2 1 2 3 3 5 4 4 4 3 4 6 4 5 3 2 1 3 2 2 3 2 3 3 3 2 2 6 8 11 11
9 8 8 7 7 5 5 3 2 2 1 2 2 1 4 3 2 3 4 4 4 3 5 6 4 3 4 3 1 1 1 3 3 3 1 2 4 3 5 5 6 9 11
9 9 7 7 6 5 5 4 3 2 1 2 1 3 3 3 0 2 3 4 4 3 4 5 5 4 2 4 3 2 1 2 2 3 3 2 2 3 4 5 3 7 12
6 7 7 7 5 5 5 4 4 3 2 1 2 3 2 1 1 3 4 4 4 4 5 4 3 4 4 3 2 3 3 3 3 3 4 4 4 1 5 6 5 3 13
Wind_Direction
212 168 176 177 176 178 178 177 177 175 175 176 176 178 182 190 194 200 194 214 274 293 297 296 293 284 281 264 290 305 310 328 341 339 280 210 192 180 175 165 158 150 147
157 165 174 176 181 185 186 185 184 182 182 187 189 193 197 203 208 212 231 249 264 283 288 290 281 280 265 277 259 271 285 294 322 330 321 230 196 184 179 176 160 157 152
156 159 171 178 185 188 190 189 187 188 190 194 201 206 211 217 224 222 221 228 243 256 271 276 280 276 272 261 275 241 257 265 288 317 321 258 204 197 187 183 168 163 155
154 163 172 184 188 191 191 189 190 192 197 202 208 213 214 219 227 235 239 235 240 245 247 254 263 270 271 265 258 281 239 246 255 280 334 287 232 199 193 187 178 168 163
164 169 180 186 189 192 191 192 192 194 199 208 215 222 227 231 238 236 243 248 249 248 248 241 254 253 265 264 258 259 266 239 246 253 310 270 219 206 197 194 190 177 175
170 174 184 186 189 192 193 195 196 199 205 211 215 223 231 230 238 244 245 247 254 257 256 256 252 257 265 261 259 253 253 249 240 213 278 264 216 220 205 199 196 186 181
164 174 180 187 190 194 195 198 199 203 208 212 220 229 237 238 246 253 251 245 252 259 257 259 259 258 256 258 257 248 248 250 225 206 234 252 234 232 216 202 201 193 176
167 168 176 187 193 195 197 201 202 206 211 215 223 230 240 243 248 253 261 257 256 260 262 264 264 262 257 252 254 261 245 249 239 200 224 251 235 232 232 212 202 180 191
160 155 175 186 196 199 201 203 202 209 215 218 224 227 231 238 248 254 262 266 265 264 263 268 268 267 267 259 251 246 242 243 226 204 221 239 244 238 227 219 195 177 185
162 173 186 177 181 193 203 205 204 212 216 217 222 226 227 235 241 247 256 264 267 269 264 258 262 263 259 253 250 244 240 236 231 213 217 235 243 239 224 219 203 188 187
203 195 169 174 172 171 184 207 208 216 217 221 224 225 221 202 232 249 258 260 267 262 261 258 255 257 257 252 244 237 236 222 234 224 222 244 253 238 223 210 202 184 176
211 194 185 175 175 168 172 186 203 221 208 215 208 215 209 199 211 228 239 251 261 262 262 267 278 257 245 217 234 232 214 212 222 230 230 246 250 235 220 203 190 159 153
207 184 186 172 172 166 173 176 201 187 206 226 230 218 208 200 218 232 237 270 285 269 282 283 291 285 199 190 202 186 192 207 217 224 234 253 256 234 224 201 189 177 171
195 188 167 168 163 177 158 186 174 192 204 228 233 220 188 207 218 226 218 217 229 230 251 255 262 266 218 188 188 191 208 212 222 232 237 260 263 233 224 206 193 182 184
210 179 169 148 156 167 179 179 173 213 214 212 209 211 192 209 218 211 224 212 221 212 226 242 246 232 213 198 185 198 212 222 229 224 233 261 268 223 218 198 201 188 181
185 153 145 162 162 162 176 183 202 212 226 221 226 223 215 211 215 215 221 219 211 213 218 225 232 215 205 188 195 202 215 228 229 230 218 253 267 222 214 200 196 183 175
158 140 161 158 159 169 182 197 211 222 211 215 224 221 218 211 215 216 223 225 204 203 217 221 222 194 175 187 206 208 222 238 234 235 221 232 258 234 210 200 195 192 172
132 148 151 158 163 172 189 202 227 231 220 227 230 221 222 217 211 211 213 210 193 199 206 206 177 186 187 193 194 220 230 230 236 237 222 227 242 231 213 202 189 183 177
141 146 156 150 165 176 202 211 232 238 227 230 226 221 227 227 212 203 209 207 184 184 200 177 162 163 177 189 205 226 245 241 240 219 223 225 228 202 181 205 169 177 162
142 140 141 146 158 172 186 221 240 242 242 240 239 230 230 235 207 196 213 210 183 173 177 166 161 177 175 175 165 92 6 346 229 208 220 218 187 183 170 185 171 163 163
142 146 145 145 172 153 179 205 227 239 286 272 251 241 240 230 209 197 198 192 183 186 176 168 144 158 122 144 123 96 63 40 151 174 190 133 135 162 115 133 143 148 168
147 138 140 152 165 187 186 193 171 168 266 263 263 257 258 248 217 197 187 194 185 156 159 167 158 139 104 160 130 107 86 45 70 122 124 108 126 125 135 144 139 140 142
137 148 154 155 168 187 177 117 51 2 338 338 332 354 303 278 241 203 187 178 181 160 171 176 161 143 135 157 117 128 127 146 135 17 83 118 104 113 119 134 130 144 141
147 137 146 154 170 174 147 111 147 166 187 250 257 281 293 309 262 186 182 181 173 157 176 178 156 145 126 143 135 124 108 139 148 140 86 85 137 112 155 109 150 139 138
144 152 151 159 164 153 134 146 153 138 213 272 324 308 306 320 56 159 166 160 157 168 159 155 164 153 148 151 152 141 97 69 93 134 122 138 75 122 121 117 130 149 144
131 140 151 161 165 148 149 163 154 156 154 14 334 313 320 329 99 124 140 151 151 163 157 170 162 171 190 165 152 121 169 154 171 132 119 98 91 51 137 122 117 141 152